EW7835 Weather Reports


time (UTC)temp
C
wind
direction
speed
KPH
gust
KPH
rain 1hr
cm
rain 24hr
cm
rain mn
cm
humidity
%
barometer
mb
20260504081503 6 0.0 0.0 0.00 0.00 0.00 43 1005.5
20260504060104 7 0.0 0.0 0.00 0.00 0.00 48 1005.9
20260504044552 7 0.0 0.0 0.00 0.00 0.00 50 1006.4
20260504043051 7 0.0 0.0 0.00 0.00 0.00 52 1006.4
20260504041550 7 0.0 0.0 0.00 0.00 0.00 54 1006.5
20260504040050 7 0.0 0.0 0.00 0.00 0.00 57 1006.8
20260504034548 7 0.0 0.0 0.00 0.00 0.00 59 1006.7
20260504033033 7 0.0 0.0 0.00 0.00 0.00 61 1006.8
20260504031518 7 0.0 0.0 0.00 0.00 0.00 61 1006.6
20260504030015 7 0.0 0.0 0.00 0.00 0.00 61 1006.4
20260504024534 7 0.0 0.0 0.00 0.00 0.00 60 1006.4
20260504023013 7 0.0 0.0 0.00 0.00 0.00 59 1006.3
20260504021513 7 0.0 0.0 0.00 0.00 0.00 58 1006.4
20260504020012 8 0.0 0.0 0.00 0.00 0.00 57 1006.4
20260504014510 8 0.0 0.0 0.00 0.00 0.00 56 1006.3
20260504013014 8 0.0 0.0 0.00 0.00 0.00 55 1006.4
20260504011508 8 0.0 0.0 0.00 0.00 0.00 53 1006.4
20260504010007 8 0.0 0.0 0.00 0.00 0.00 52 1006.2
20260504004513 8 0.0 0.0 0.00 0.00 0.00 49 1006.2
20260504003005 8 0.0 0.0 0.00 0.00 0.00 47 1006.1
20260504001505 9 0.0 0.0 0.00 0.00 0.00 44 1006.0
20260504000003 9 0.0 0.0 0.00 0.00 0.00 43 1005.8
20260503234503 10 0.0 0.0 0.00 0.00 0.00 42 1005.7
20260503233002 10 0.0 0.0 0.00 0.00 0.00 40 1005.5
20260503231501 10 0.0 0.0 0.00 0.00 0.00 38 1005.3
20260503230104 11 0.0 0.0 0.00 0.00 0.00 37 1005.0
20260503224558 11 0.0 0.0 0.00 0.00 0.00 35 1004.9
20260503223059 11 0.0 0.0 0.00 0.00 0.00 33 1004.8
20260503221558 11 0.0 0.0 0.00 0.00 0.00 32 1004.7
20260503220025 11 0.0 0.0 0.00 0.00 0.00 30 1004.7
20260503214520 12 0.0 0.0 0.00 0.00 0.00 30 1004.6
20260503213018 12 0.0 0.0 0.00 0.00 0.00 31 1004.6
20260503211510 11 0.0 0.0 0.00 0.00 0.00 30 1004.6
20260503210009 11 0.0 0.0 0.00 0.00 0.00 30 1004.7
20260503204508 11 0.0 0.0 0.00 0.00 0.00 31 1004.8
20260503203003 11 0.0 0.0 0.00 0.00 0.00 30 1004.8
20260503201500 11 0.0 0.0 0.00 0.00 0.00 31 1004.9
20260503200058 11 0.0 0.0 0.00 0.00 0.00 33 1004.9
20260503194556 11 0.0 0.0 0.00 0.00 0.00 35 1005.2
20260503193056 10 0.0 0.0 0.00 0.00 0.00 36 1005.4
20260503191549 10 0.0 0.0 0.00 0.00 0.00 37 1005.6
20260503190051 10 0.0 0.0 0.00 0.00 0.00 38 1005.8
20260503184600 10 0.0 0.0 0.00 0.00 0.00 37 1006.0
20260503183014 10 0.0 0.0 0.00 0.00 0.00 40 1006.1
20260503181510 8 0.0 0.0 0.00 0.00 0.00 41 1006.3
20260503180037 8 0.0 0.0 0.00 0.00 0.00 42 1006.4
20260503174556 8 0.0 0.0 0.00 0.00 0.00 43 1006.5
20260503173031 8 0.0 0.0 0.00 0.00 0.00 45 1006.5
20260503171529 8 0.0 0.0 0.00 0.00 0.00 43 1006.7